,

(GMT )
Al Udeid

Weather History for KQIR - November, 2012

Change the Weather History Date:

Tuesday, November 6, 2012

  Actual Average Record
Temperature  
Mean Temperature 78 °F -  
Max Temperature 91 °F - - ()
Min Temperature 66 °F - - ()
Cooling Degree Days 14    
Growing Degree Days 28 (Base 50)    
Moisture  
Dew Point 54 °F    
Average Humidity 46    
Maximum Humidity 76    
Minimum Humidity 23    
Precipitation  
Precipitation 0.00 in - - ()
Sea Level Pressure  
Sea Level Pressure 29.96 in    
Wind  
Wind Speed 5 mph ()    
Max Wind Speed 14 mph    
Max Gust Speed -    
Visibility 6.2 miles    
Events      
T = Trace of Precipitation, MM = Missing Value Source: Averaged Metar Reports

Daily Weather History Graph

Daily Weather History Graph

Search for Another Location

Airport or City:

Trip Planner

Search our weather history database for the weather conditions in past years. The results will help you decide how hot, cold, wet, or windy it might be!

Date:

Astronomy

Nov. 06, 2012 Rise Set
Actual Time 5:45 AM AST 4:50 PM AST
Civil Twilight 5:21 AM AST 5:14 PM AST
Nautical Twilight 4:54 AM AST 5:41 PM AST
Astronomical Twilight 4:27 AM AST 6:08 PM AST
Moon 11:00 PM AST (11/6) 11:27 AM AST (11/6)
Length of Visible Light 11h 52m
Length of Day
11h 05m
Waning Gibbous, 56% of the Moon is Illuminated
Nov 6
Waning Gibbous
Nov 7
Last Quarter
Nov 14
New
Nov 20
First Quarter
Nov 28
Full

Hourly Weather History & Observations

Time (AST) Temp. Heat Index Dew Point Humidity Pressure Visibility Wind Dir Wind Speed Gust Speed Precip Events Conditions
12:55 AM 72.7 °F - 61.9 °F 69% 29.94 in 6.2 mi Calm Calm - N/A   Clear
1:55 AM 70.7 °F - 60.6 °F 70% 29.93 in 6.2 mi West 3.5 mph - N/A   Clear
2:55 AM 69.1 °F - 59.9 °F 72% 29.93 in 6.2 mi WNW 4.6 mph - N/A   Clear
3:55 AM 67.8 °F - 59.7 °F 75% 29.93 in 6.2 mi West 6.9 mph - N/A   Clear
4:55 AM 67.3 °F - 58.8 °F 74% 29.94 in 6.2 mi WSW 8.1 mph - N/A   Clear
5:55 AM 66.9 °F - 58.8 °F 75% 29.96 in 6.2 mi West 5.8 mph - N/A   Clear
6:55 AM 69.4 °F - 61.7 °F 76% 29.98 in 6.2 mi WSW 6.9 mph - N/A   Clear
7:55 AM 77.0 °F - 65.7 °F 68% 30.00 in 6.2 mi WSW 8.1 mph - N/A   Clear
8:55 AM 83.1 °F 82.9 °F 58.3 °F 43% 30.01 in 6.2 mi West 9.2 mph - N/A   Clear
9:55 AM 86.9 °F 85.1 °F 54.5 °F 33% 29.99 in 6.2 mi West 9.2 mph - N/A   Clear
10:55 AM 89.1 °F - 51.6 °F 28% 29.97 in 6.2 mi NW 5.8 mph - N/A   Clear
11:55 AM 90.1 °F - 51.8 °F 27% 29.94 in 6.2 mi Variable 4.6 mph - N/A   Partly Cloudy
12:55 PM 90.9 °F - 50.0 °F 25% 29.92 in 6.2 mi North 6.9 mph - N/A   Clear
1:55 PM 91.4 °F - 49.3 °F 24% 29.92 in 6.2 mi Variable 4.6 mph - N/A   Clear
2:55 PM 91.0 °F - 48.7 °F 23% 29.92 in 6.2 mi NW 8.1 mph - N/A   Clear
3:55 PM 89.8 °F - 46.8 °F 23% 29.93 in 6.2 mi NW 13.8 mph - N/A   Clear
4:55 PM 86.2 °F - 46.0 °F 25% 29.95 in 6.2 mi NW 10.4 mph - N/A   Clear
5:55 PM 82.6 °F - 46.2 °F 28% 29.96 in 6.2 mi NW 8.1 mph - N/A   Clear
6:55 PM 79.9 °F - 47.1 °F 32% 29.97 in 6.2 mi NW 6.9 mph - N/A   Clear
7:55 PM 77.2 °F - 48.7 °F 37% 29.98 in 6.2 mi NNW 5.8 mph - N/A   Clear
8:55 PM 77.7 °F - 50.0 °F 38% 29.98 in 6.2 mi North 3.5 mph - N/A   Clear
9:55 PM 75.2 °F - 49.8 °F 41% 29.98 in 6.2 mi NNW 3.5 mph - N/A   Clear
10:55 PM 74.3 °F - 50.2 °F 43% 29.98 in 6.2 mi Calm Calm - N/A   Clear
11:55 PM 71.2 °F - 48.6 °F 45% 29.96 in 6.2 mi Calm Calm - N/A   Clear